Time,TemperatureF,DewpointF,PressureIn,WindDirection,WindDirectionDegrees,WindSpeedMPH,WindSpeedGustMPH,Humidity,HourlyPrecipIn,Conditions,Clouds,dailyrainin,SoftwareType,DateUTC
2018-04-19 00:02:00,40.6,35.8,30.05,ESE,112,0.0,0.0,83,0.00,,,0.00,WUHU21623XXSP,2018-04-19 07:02:00,
2018-04-19 00:07:00,40.3,35.5,30.06,ESE,112,0.0,0.0,83,0.00,,,0.00,WUHU21623XXSP,2018-04-19 07:07:00,
2018-04-19 00:12:00,39.9,35.1,30.06,ESE,112,0.0,0.0,83,0.00,,,0.00,WUHU21623XXSP,2018-04-19 07:12:00,
2018-04-19 00:17:00,39.7,35.1,30.06,ESE,112,0.0,0.0,83,0.00,,,0.00,WUHU21623XXSP,2018-04-19 07:17:00,
2018-04-19 00:22:00,39.7,35.0,30.06,ESE,112,0.0,0.0,83,0.00,,,0.00,WUHU21623XXSP,2018-04-19 07:22:00,
2018-04-19 00:27:00,39.7,35.0,30.06,ESE,112,0.0,0.0,83,0.00,,,0.00,WUHU21623XXSP,2018-04-19 07:27:00,
2018-04-19 00:32:00,39.9,35.0,30.06,ESE,112,0.0,0.0,84,0.00,,,0.00,WUHU21623XXSP,2018-04-19 07:32:00,
2018-04-19 00:37:00,39.9,35.4,30.06,ESE,112,0.0,0.0,84,0.00,,,0.00,WUHU21623XXSP,2018-04-19 07:37:00,
2018-04-19 00:42:00,40.1,35.4,30.06,ESE,112,0.0,0.0,84,0.00,,,0.00,WUHU21623XXSP,2018-04-19 07:42:00,
2018-04-19 00:47:00,40.1,35.6,30.06,ESE,112,0.0,0.0,84,0.00,,,0.00,WUHU21623XXSP,2018-04-19 07:47:00,
2018-04-19 00:52:00,40.3,35.8,30.06,ESE,112,0.0,0.0,84,0.00,,,0.00,WUHU21623XXSP,2018-04-19 07:52:00,
2018-04-19 00:57:00,40.3,35.8,30.06,ESE,112,0.0,0.0,84,0.00,,,0.00,WUHU21623XXSP,2018-04-19 07:57:00,
2018-04-19 01:02:00,40.3,35.8,30.06,ESE,112,0.0,0.0,84,0.00,,,0.00,WUHU21623XXSP,2018-04-19 08:02:00,
2018-04-19 01:07:00,40.3,35.5,30.06,ESE,112,0.0,0.0,83,0.00,,,0.00,WUHU21623XXSP,2018-04-19 08:07:00,
2018-04-19 01:12:00,40.3,35.5,30.06,ESE,112,0.0,0.0,83,0.00,,,0.00,WUHU21623XXSP,2018-04-19 08:12:00,
2018-04-19 01:17:00,40.1,35.3,30.06,ESE,112,0.0,0.0,83,0.00,,,0.00,WUHU21623XXSP,2018-04-19 08:17:00,
2018-04-19 01:22:00,40.1,35.3,30.06,ESE,112,0.0,2.5,83,0.00,,,0.00,WUHU21623XXSP,2018-04-19 08:22:00,
2018-04-19 01:27:00,40.3,35.5,30.06,ESE,112,0.0,2.5,83,0.00,,,0.00,WUHU21623XXSP,2018-04-19 08:27:00,
2018-04-19 01:32:00,40.3,35.5,30.06,ESE,112,0.0,0.0,83,0.00,,,0.00,WUHU21623XXSP,2018-04-19 08:32:00,
2018-04-19 01:37:00,40.3,35.5,30.06,ESE,112,0.0,0.0,83,0.00,,,0.00,WUHU21623XXSP,2018-04-19 08:37:00,
2018-04-19 01:42:00,40.3,35.5,30.05,ESE,112,0.0,0.0,83,0.00,,,0.00,WUHU21623XXSP,2018-04-19 08:42:00,
2018-04-19 01:47:00,40.3,35.5,30.06,ESE,112,0.0,0.0,83,0.00,,,0.00,WUHU21623XXSP,2018-04-19 08:47:00,
2018-04-19 01:52:00,39.9,35.1,30.06,East,90,0.0,0.0,83,0.00,,,0.00,WUHU21623XXSP,2018-04-19 08:52:00,
2018-04-19 01:57:00,39.9,35.1,30.06,East,90,0.0,0.0,83,0.00,,,0.00,WUHU21623XXSP,2018-04-19 08:57:00,
2018-04-19 02:02:00,39.7,35.0,30.06,East,90,0.0,0.0,83,0.00,,,0.00,WUHU21623XXSP,2018-04-19 09:02:00,
2018-04-19 02:07:00,39.7,35.0,30.06,ESE,112,1.6,1.6,83,0.00,,,0.00,WUHU21623XXSP,2018-04-19 09:07:00,
2018-04-19 02:12:00,39.7,35.0,30.06,ESE,112,0.0,1.6,83,0.00,,,0.00,WUHU21623XXSP,2018-04-19 09:12:00,
2018-04-19 02:17:00,39.7,35.0,30.06,ESE,112,0.0,0.0,83,0.00,,,0.00,WUHU21623XXSP,2018-04-19 09:17:00,
2018-04-19 02:22:00,39.7,35.0,30.06,ESE,112,0.0,0.0,83,0.00,,,0.00,WUHU21623XXSP,2018-04-19 09:22:00,
2018-04-19 02:27:00,39.7,35.0,30.06,ESE,112,0.0,0.0,83,0.00,,,0.00,WUHU21623XXSP,2018-04-19 09:27:00,
2018-04-19 02:32:00,39.7,35.0,30.06,ESE,112,0.0,0.0,83,0.00,,,0.00,WUHU21623XXSP,2018-04-19 09:32:00,
2018-04-19 02:37:00,39.7,35.0,30.06,ESE,112,0.0,0.0,83,0.00,,,0.00,WUHU21623XXSP,2018-04-19 09:37:00,
2018-04-19 02:42:00,39.6,34.8,30.05,ESE,112,0.0,0.0,83,0.00,,,0.00,WUHU21623XXSP,2018-04-19 09:42:00,
2018-04-19 02:47:00,39.6,34.8,30.05,ESE,112,0.0,0.0,83,0.00,,,0.00,WUHU21623XXSP,2018-04-19 09:47:00,
2018-04-19 02:52:00,39.6,34.8,30.06,ESE,112,0.0,0.0,83,0.00,,,0.00,WUHU21623XXSP,2018-04-19 09:52:00,
2018-04-19 02:57:00,39.6,34.8,30.06,ESE,112,0.0,0.0,83,0.00,,,0.00,WUHU21623XXSP,2018-04-19 09:57:00,
2018-04-19 03:02:00,39.4,34.6,30.06,ESE,112,0.0,0.0,83,0.00,,,0.00,WUHU21623XXSP,2018-04-19 10:02:00,
2018-04-19 03:07:00,39.0,34.3,30.06,ESE,112,0.0,0.0,83,0.00,,,0.00,WUHU21623XXSP,2018-04-19 10:07:00,
2018-04-19 03:12:00,39.2,34.5,30.06,ESE,112,0.0,0.0,83,0.00,,,0.00,WUHU21623XXSP,2018-04-19 10:12:00,
2018-04-19 03:17:00,39.2,34.5,30.06,ESE,112,0.0,0.0,83,0.00,,,0.00,WUHU21623XXSP,2018-04-19 10:17:00,
2018-04-19 03:22:00,39.4,34.9,30.06,ESE,112,0.0,0.0,84,0.00,,,0.00,WUHU21623XXSP,2018-04-19 10:22:00,
2018-04-19 03:27:00,39.4,34.9,30.06,ESE,112,0.0,0.0,84,0.00,,,0.00,WUHU21623XXSP,2018-04-19 10:27:00,
2018-04-19 03:32:00,39.6,35.1,30.06,ESE,112,0.0,0.0,84,0.00,,,0.00,WUHU21623XXSP,2018-04-19 10:32:00,
2018-04-19 03:37:00,39.6,35.1,30.07,ESE,112,0.0,0.0,84,0.00,,,0.00,WUHU21623XXSP,2018-04-19 10:37:00,
2018-04-19 03:42:00,39.4,34.6,30.07,ESE,112,0.0,0.0,83,0.00,,,0.00,WUHU21623XXSP,2018-04-19 10:42:00,
2018-04-19 03:47:00,39.0,34.3,30.07,ESE,112,0.0,0.0,83,0.00,,,0.00,WUHU21623XXSP,2018-04-19 10:47:00,
2018-04-19 03:52:00,38.5,33.8,30.07,ESE,112,0.0,0.0,83,0.00,,,0.00,WUHU21623XXSP,2018-04-19 10:52:00,
2018-04-19 03:57:00,38.3,33.6,30.07,ESE,112,0.0,0.0,83,0.00,,,0.00,WUHU21623XXSP,2018-04-19 10:57:00,
2018-04-19 04:02:00,38.5,34.1,30.07,ESE,112,0.0,0.0,84,0.00,,,0.00,WUHU21623XXSP,2018-04-19 11:02:00,
2018-04-19 04:07:00,38.5,34.1,30.07,ESE,112,0.0,0.0,84,0.00,,,0.00,WUHU21623XXSP,2018-04-19 11:07:00,
2018-04-19 04:12:00,38.7,34.2,30.07,ESE,112,0.0,0.0,84,0.00,,,0.00,WUHU21623XXSP,2018-04-19 11:12:00,
2018-04-19 04:17:00,38.8,34.4,30.07,ESE,112,0.0,0.0,84,0.00,,,0.00,WUHU21623XXSP,2018-04-19 11:17:00,
2018-04-19 04:22:00,38.8,34.4,30.07,ESE,112,0.0,0.0,84,0.00,,,0.00,WUHU21623XXSP,2018-04-19 11:22:00,
2018-04-19 04:27:00,38.8,34.4,30.07,ESE,112,0.0,0.0,84,0.00,,,0.00,WUHU21623XXSP,2018-04-19 11:27:00,
2018-04-19 04:32:00,38.3,34.1,30.07,ESE,112,0.0,0.0,84,0.00,,,0.00,WUHU21623XXSP,2018-04-19 11:32:00,
2018-04-19 04:37:00,38.1,33.7,30.07,ESE,112,0.0,0.0,84,0.00,,,0.00,WUHU21623XXSP,2018-04-19 11:37:00,
2018-04-19 04:42:00,37.9,33.5,30.07,ESE,112,0.0,0.0,84,0.00,,,0.00,WUHU21623XXSP,2018-04-19 11:42:00,
2018-04-19 04:47:00,37.6,33.2,30.07,ESE,112,0.0,0.0,84,0.00,,,0.00,WUHU21623XXSP,2018-04-19 11:47:00,
2018-04-19 04:52:00,37.0,32.6,30.07,ESE,112,0.0,0.0,84,0.00,,,0.00,WUHU21623XXSP,2018-04-19 11:52:00,
2018-04-19 04:57:00,37.0,32.6,30.07,ESE,112,0.0,0.0,84,0.00,,,0.00,WUHU21623XXSP,2018-04-19 11:57:00,
2018-04-19 05:02:00,36.7,32.3,30.08,ESE,112,0.0,0.0,84,0.00,,,0.00,WUHU21623XXSP,2018-04-19 12:02:00,
2018-04-19 05:07:00,36.3,31.9,30.08,ESE,112,0.0,0.0,84,0.00,,,0.00,WUHU21623XXSP,2018-04-19 12:07:00,
2018-04-19 05:09:00,36.3,31.9,30.08,ESE,112,0.0,0.0,84,0.00,,,0.00,WUHU21623XXSP,2018-04-19 12:09:00,
2018-04-19 05:14:00,36.1,31.7,30.08,ESE,112,0.0,0.0,84,0.00,,,0.00,WUHU21623XXSP,2018-04-19 12:14:00,
2018-04-19 05:19:00,36.1,31.7,30.08,ESE,112,0.0,0.0,84,0.00,,,0.00,WUHU21623XXSP,2018-04-19 12:19:00,
2018-04-19 05:24:00,36.1,31.7,30.08,ESE,112,0.0,0.0,84,0.00,,,0.00,WUHU21623XXSP,2018-04-19 12:24:00,
2018-04-19 05:29:00,35.8,31.4,30.08,ESE,112,0.0,0.0,84,0.00,,,0.00,WUHU21623XXSP,2018-04-19 12:29:00,
2018-04-19 05:34:00,35.8,31.6,30.08,ESE,112,0.0,0.0,85,0.00,,,0.00,WUHU21623XXSP,2018-04-19 12:34:00,
2018-04-19 05:39:00,35.8,31.6,30.08,ESE,112,0.0,0.0,85,0.00,,,0.00,WUHU21623XXSP,2018-04-19 12:39:00,
2018-04-19 05:44:00,35.4,31.0,30.09,ESE,112,0.0,0.0,84,0.00,,,0.00,WUHU21623XXSP,2018-04-19 12:44:00,
2018-04-19 05:49:00,35.2,30.8,30.08,ESE,112,0.0,0.0,84,0.00,,,0.00,WUHU21623XXSP,2018-04-19 12:49:00,
2018-04-19 05:53:00,35.4,31.3,30.08,ESE,112,0.0,0.0,85,0.00,,,0.00,WUHU21623XXSP,2018-04-19 12:53:00,
2018-04-19 05:59:00,35.4,31.3,30.09,ESE,112,0.0,0.0,85,0.00,,,0.00,WUHU21623XXSP,2018-04-19 12:59:00,
2018-04-19 06:04:00,35.4,31.3,30.09,ESE,112,0.0,0.0,85,0.00,,,0.00,WUHU21623XXSP,2018-04-19 13:04:00,
2018-04-19 06:09:00,35.8,31.5,30.09,ESE,112,0.0,0.0,85,0.00,,,0.00,WUHU21623XXSP,2018-04-19 13:09:00,
2018-04-19 06:14:00,36.0,31.6,30.10,ESE,112,0.0,0.0,86,0.00,,,0.00,WUHU21623XXSP,2018-04-19 13:14:00,
2018-04-19 06:19:00,36.5,32.6,30.10,ESE,112,0.0,0.0,86,0.00,,,0.00,WUHU21623XXSP,2018-04-19 13:19:00,
2018-04-19 06:24:00,37.0,33.2,30.10,ESE,112,0.0,0.0,86,0.00,,,0.00,WUHU21623XXSP,2018-04-19 13:24:00,
2018-04-19 06:29:00,37.2,33.4,30.10,ESE,112,0.0,0.0,86,0.00,,,0.00,WUHU21623XXSP,2018-04-19 13:29:00,
2018-04-19 06:34:00,37.6,33.7,30.10,ESE,112,0.0,0.0,86,0.00,,,0.00,WUHU21623XXSP,2018-04-19 13:34:00,
2018-04-19 06:39:00,37.8,33.9,30.10,ESE,112,0.0,0.0,86,0.00,,,0.00,WUHU21623XXSP,2018-04-19 13:39:00,
2018-04-19 06:44:00,37.9,34.1,30.10,ESE,112,0.0,0.0,86,0.00,,,0.00,WUHU21623XXSP,2018-04-19 13:44:00,
2018-04-19 06:49:00,38.1,34.3,30.11,ESE,112,0.0,0.0,86,0.00,,,0.00,WUHU21623XXSP,2018-04-19 13:49:00,
2018-04-19 06:54:00,38.3,34.4,30.11,ESE,112,0.0,0.0,86,0.00,,,0.00,WUHU21623XXSP,2018-04-19 13:54:00,
2018-04-19 06:59:00,38.3,34.4,30.11,ESE,112,0.0,0.0,86,0.00,,,0.00,WUHU21623XXSP,2018-04-19 13:59:00,
2018-04-19 07:04:00,38.3,34.4,30.11,ESE,112,0.0,0.0,86,0.00,,,0.00,WUHU21623XXSP,2018-04-19 14:04:00,
2018-04-19 07:09:00,38.5,34.6,30.11,ESE,112,0.0,0.0,86,0.00,,,0.00,WUHU21623XXSP,2018-04-19 14:09:00,
2018-04-19 07:14:00,38.8,35.3,30.11,ESE,112,0.0,0.0,87,0.00,,,0.00,WUHU21623XXSP,2018-04-19 14:14:00,
2018-04-19 07:19:00,39.0,35.5,30.11,ESE,112,0.0,0.0,87,0.00,,,0.00,WUHU21623XXSP,2018-04-19 14:19:00,
2018-04-19 07:24:00,39.4,35.8,30.11,ESE,112,0.0,0.0,87,0.00,,,0.00,WUHU21623XXSP,2018-04-19 14:24:00,
2018-04-19 07:29:00,39.7,36.2,30.11,ESE,112,0.0,0.0,87,0.00,,,0.00,WUHU21623XXSP,2018-04-19 14:29:00,
2018-04-19 07:34:00,39.9,36.3,30.11,ESE,112,0.0,0.0,87,0.00,,,0.00,WUHU21623XXSP,2018-04-19 14:34:00,
2018-04-19 07:39:00,39.9,36.3,30.11,ESE,112,0.0,0.0,86,0.00,,,0.00,WUHU21623XXSP,2018-04-19 14:39:00,
2018-04-19 07:44:00,39.9,36.0,30.12,ESE,112,0.0,0.0,86,0.00,,,0.00,WUHU21623XXSP,2018-04-19 14:44:00,
2018-04-19 07:49:00,39.9,36.0,30.12,ESE,112,0.0,0.0,86,0.00,,,0.00,WUHU21623XXSP,2018-04-19 14:49:00,
2018-04-19 07:54:00,39.9,36.0,30.12,ESE,112,0.0,0.0,86,0.00,,,0.00,WUHU21623XXSP,2018-04-19 14:54:00,
2018-04-19 07:59:00,40.1,36.2,30.12,ESE,112,0.0,0.0,86,0.00,,,0.00,WUHU21623XXSP,2018-04-19 14:59:00,
2018-04-19 08:04:00,40.1,36.2,30.12,ESE,112,0.0,0.0,86,0.00,,,0.00,WUHU21623XXSP,2018-04-19 15:04:00,
2018-04-19 08:09:00,40.3,36.4,30.11,East,90,0.0,0.0,86,0.00,,,0.00,WUHU21623XXSP,2018-04-19 15:09:00,
2018-04-19 08:14:00,40.8,36.9,30.12,East,90,0.0,0.0,86,0.00,,,0.00,WUHU21623XXSP,2018-04-19 15:14:00,
2018-04-19 08:19:00,41.0,37.1,30.12,East,90,0.0,0.0,86,0.00,,,0.00,WUHU21623XXSP,2018-04-19 15:19:00,
2018-04-19 08:24:00,41.5,37.4,30.11,East,90,0.0,0.0,86,0.00,,,0.00,WUHU21623XXSP,2018-04-19 15:24:00,
2018-04-19 08:29:00,41.9,38.0,30.12,East,90,0.0,0.0,86,0.00,,,0.00,WUHU21623XXSP,2018-04-19 15:29:00,
2018-04-19 08:34:00,42.6,39.0,30.13,East,90,0.0,0.0,87,0.00,,,0.00,WUHU21623XXSP,2018-04-19 15:34:00,
2018-04-19 08:39:00,44.4,40.5,30.12,East,90,0.0,0.0,86,0.00,,,0.00,WUHU21623XXSP,2018-04-19 15:39:00,
2018-04-19 08:44:00,45.3,41.1,30.13,East,90,0.0,0.0,85,0.00,,,0.00,WUHU21623XXSP,2018-04-19 15:44:00,
2018-04-19 08:49:00,46.2,41.7,30.12,East,90,0.0,0.0,84,0.00,,,0.00,WUHU21623XXSP,2018-04-19 15:49:00,
2018-04-19 08:54:00,46.9,42.0,30.13,East,90,0.0,0.0,83,0.00,,,0.00,WUHU21623XXSP,2018-04-19 15:54:00,
2018-04-19 08:59:00,47.3,42.2,30.13,East,90,0.0,0.0,83,0.00,,,0.00,WUHU21623XXSP,2018-04-19 15:59:00,
2018-04-19 09:04:00,47.8,42.9,30.13,East,90,0.0,0.0,83,0.00,,,0.00,WUHU21623XXSP,2018-04-19 16:04:00,
2018-04-19 09:09:00,48.6,43.6,30.13,East,90,0.0,0.0,83,0.00,,,0.00,WUHU21623XXSP,2018-04-19 16:09:00,
2018-04-19 09:14:00,48.9,43.6,30.13,East,90,0.0,0.0,82,0.00,,,0.00,WUHU21623XXSP,2018-04-19 16:14:00,
2018-04-19 09:19:00,49.3,44.0,30.14,SW,225,0.0,0.0,82,0.00,,,0.00,WUHU21623XXSP,2018-04-19 16:19:00,
2018-04-19 09:24:00,49.8,44.2,30.14,WSW,247,0.0,0.0,81,0.00,,,0.00,WUHU21623XXSP,2018-04-19 16:24:00,
2018-04-19 09:29:00,49.8,44.2,30.14,SW,225,0.0,0.0,81,0.00,,,0.00,WUHU21623XXSP,2018-04-19 16:29:00,